Regional Weather Roundup
Issued by NWS

Home | Current Version | Previous Version | Graphics & Text | Print | Product List | Glossary On
Versions: 1 2 3 4 5 6 7 8 9 10 11 12 13 14 15 16 17 18 19 20 21 22 23 24 25 26 27 28 29 30 31 32 33 34 35 36 37 38 39 40 41 42 43 44 45 46 47 48 49 50
000
ASUS43 KTOP 301659
RWRKS

WEATHER ROUNDUP FOR KANSAS
NATIONAL WEATHER SERVICE GOODLAND KS
1200 PM CDT THU JUL 30 2015

NOTE:  "FAIR" INDICATES FEW OR NO CLOUDS BELOW 12,000 FEET WITH NO
SIGNIFICANT WEATHER AND/OR OBSTRUCTIONS TO VISIBILITY.

KSZ001>006-013>018-027>032-041>047-301800-
NORTHWEST KANSAS

CITY           SKY/WX    TMP DP  RH WIND       PRES   REMARKS
GOODLAND       SUNNY     81  64  56 S10       30.30S
HAYS           MOSUNNY   81  64  57 SE5       30.26S
HILL CITY      MOSUNNY   81  66  60 MISG      30.26S
RUSSELL        PTSUNNY   79  67  66 S6        30.24F
$$

KSZ061>065-074>080-084>089-301800-
SOUTHWEST KANSAS

CITY           SKY/WX    TMP DP  RH WIND       PRES   REMARKS
DODGE CITY     CLOUDY    76  66  71 E6        30.29S
ELKHART          N/A     74  65  74 E5          N/A
GARDEN CITY    CLOUDY    76  68  76 SE8       30.29F
GREAT BEND     CLOUDY    75  66  73 E3        30.26S
LIBERAL        CLOUDY    73  66  78 E3        30.29S
$$

KSZ066>073-081>083-090>101-301800-
SOUTHEAST KANSAS

CITY           SKY/WX    TMP DP  RH WIND       PRES   REMARKS
CHANUTE        CLOUDY    85  66  53 E6        30.21F
COFFEYVILLE    CLOUDY    87  68  52 E9        30.18S
HUTCHINSON     PTSUNNY   76  69  79 S5        30.25S
MEDICINE LODGE   N/A     75  70  84 SE8       30.26R
PARSONS        CLOUDY    86  68  54 VRB3      30.21S
WICHITA INTL   LGT RAIN  71  69  93 SE8       30.22F
WICHITA JABRA  LGT RAIN  69  69 100 SE7       30.23F
WICHITA MCCONL LGT RAIN  70  68  94 E7        30.23F
WINFIELD       LGT RAIN  70  69  97 NE12      30.24F
$$

KSZ007>012-019>026-033>040-048>060-102>105-301800-
NORTHEAST KANSAS

CITY           SKY/WX    TMP DP  RH WIND       PRES   REMARKS
CONCORDIA      SUNNY     83  62  49 S10       30.24F
EMPORIA          N/A     74  67  78 W3        30.24F
LAWRENCE       CLOUDY    82  60  47 E3        30.23S
MANHATTAN      MOSUNNY   82  64  54 SW9       30.24S
OLATHE IND     CLOUDY    82  60  47 S5        30.24S
OLATHE EXE     CLOUDY    81  55  40 S6        30.23S
SALINA         MOSUNNY   81  68  64 S10       30.24F
TOPEKA BILLARD CLOUDY    82  65  56 CALM      30.23S
TOPEKA FORBES  CLOUDY    81  67  62 VRB3      30.24S
$$


USA.gov is the U.S. government's official web portal to all federal, state and local government web resources and services.